Weather in Zaozersk

Russia / Murmansk Oblast     69°24′01″N   32°27′00″E
temp.,
°C
wind,
m/s
gust,
m/s
humid.,
%
clouds,
%
prec.,
mm/h
press.,
hPa
HPBL,
m
11 may, tue
tue1100:00+3w227454 0.0 101211
03:00+3w237287 0.0 101385
06:00+3wsw2384100 0.0 1015142
09:00+4ssw2385100 0.0 1015200
12:00+5s3477100 0.0 1015376
15:00+6s5677100 0.1 1013700
18:00+4ese4597100 3.3 1011357
21:00+4sse1296100 4.3 1011139
12 may, wed
wed1200:00+4wnw3496100 0.4 1012159
03:00+4nnw2394100 0.6 101594
06:00+4wnw1193100 0.1 101929
09:00+4w1288100 0.1 1021211
12:00+4sw1183100 0.0 1022315
15:00+6s3373100 0.1 1022683
18:00+7se5673100 0.0 1021621
21:00+6se4683100 0.0 1019200
13 may, thu
thu1300:00+5se2294100 0.9 101729
03:00+5se1199100 5.9 101519
06:00+6wsw0198100 1.3 101411
09:00+7w1196100 1.3 101324
12:00+7wnw1195100 0.1 101386
15:00+6nne4699100 2.4 1013183
18:00+5nne4898100 5.6 1014303
21:00+4n5998100 10.5 1015347
14 may, fri
fri1400:00+4nnw3798100 0.8 1016364
03:00+3nne5897100 1.5 1018515
06:00+2ne6997100 0.4 1018554
09:00+2ne7998100 0.8 1019520
12:00+2ene7998100 0.3 1020566
15:00+2ene81098100 0.7 1021579
18:00+1ene81091100 0.3 1021772
21:00+1ene8985100 0.6 1022868
15 may, sat
sat1500:00+1ene7883100 0.1 1022802
03:000ene6880100 0.1 1023736
06:000ene7877100 0.0 1023812
09:00+1ene7772100 0.1 1024904
12:00+1e776786 0.1 10241091
15:00+2e886395 0.1 10251140
18:00+1e896699 0.0 10241069
21:00+1e897097 0.0 1024944